Pocatello, ID

5:05 AM MDT on March 28, 2017 (GMT -0600)
Pocatello Regional

Weather History for KPIH - November, 2012

Change the Weather History Date:

Sunday, November 4, 2012

  Actual Average Record
Temperature  
Mean Temperature 48 °F 40 °F  
Max Temperature 62 °F 51 °F 67 °F (2010)
Min Temperature 34 °F 28 °F 0 °F (1973)
Degree Days  
Heating Degree Days 17 25  
Month to date heating degree days 77 98  
Since 1 July heating degree days 775 905  
Cooling Degree Days 0 0  
Month to date cooling degree days 0 0  
Year to date cooling degree days 560 392  
Moisture  
Dew Point 32 °F    
Average Humidity 59    
Maximum Humidity 82    
Minimum Humidity 35    
Precipitation  
Precipitation 0.00 in 0.03 in 0.48 in (1944)
Month to date precipitation 0.00 0.12  
Year to date precipitation 7.59 9.90  
Snow  
Snow 0.00 in - - ()
Month to date snowfall 0.0  
Since 1 July snowfall 2.2  
Since 1 September snowfall 2.2  
Snow Depth 0.00 in    
Sea Level Pressure  
Sea Level Pressure 30.35 in    
Wind  
Wind Speed 7 mph (SW)    
Max Wind Speed 16 mph    
Max Gust Speed 18 mph    
Visibility 10 miles    
Events      
T = Trace of Precipitation, MM = Missing Value Source: NWS Daily Summary

Daily Weather History Graph

Daily Weather History Graph

Search for Another Location

Airport or City:

Trip Planner

Search our weather history database for the weather conditions in past years. The results will help you decide how hot, cold, wet, or windy it might be!

Date:

Astronomy

Nov. 04, 2012 Rise Set
Actual Time 7:09 AM MST 5:18 PM MST
Civil Twilight 6:39 AM MST 5:47 PM MST
Nautical Twilight 6:05 AM MST 6:21 PM MST
Astronomical Twilight 5:32 AM MST 6:54 PM MST
Moon 9:58 PM MST (11/4) 11:56 AM MST (11/4)
Length of Visible Light 11h 08m
Length of Day
10h 08m
Waning Gibbous, 71% of the Moon is Illuminated
Nov 4
Waning Gibbous
Nov 6
Last Quarter
Nov 13
New
Nov 20
First Quarter
Nov 28
Full

Hourly Weather History & Observations

Time (MST) Temp. Windchill Dew Point Humidity Pressure Visibility Wind Dir Wind Speed Gust Speed Precip Events Conditions
12:53 AM 41.0 °F - 27.0 °F 57% 30.24 in 10.0 mi Calm Calm - N/A   Clear
1:53 AM 37.9 °F 34.4 °F 28.0 °F 68% 30.26 in 10.0 mi NNW 4.6 mph - N/A   Partly Cloudy
1:53 AM 36.0 °F 31.1 °F 28.9 °F 76% 30.25 in 10.0 mi North 5.8 mph - N/A   Clear
2:53 AM 39.0 °F - 30.9 °F 73% 30.27 in 10.0 mi Calm Calm - N/A   Clear
3:53 AM 35.1 °F 30.1 °F 30.0 °F 82% 30.27 in 10.0 mi South 5.8 mph - N/A   Clear
4:53 AM 35.1 °F 32.2 °F 28.9 °F 78% 30.32 in 10.0 mi SE 3.5 mph - N/A   Clear
5:53 AM 39.0 °F 35.7 °F 30.0 °F 70% 30.32 in 10.0 mi East 4.6 mph - N/A   Clear
6:53 AM 37.0 °F 31.6 °F 30.9 °F 79% 30.34 in 10.0 mi WSW 6.9 mph - N/A   Mostly Cloudy
7:53 AM 39.9 °F 37.8 °F 32.0 °F 73% 30.38 in 10.0 mi ESE 3.5 mph - N/A   Mostly Cloudy
8:53 AM 46.0 °F 44.8 °F 33.1 °F 61% 30.37 in 10.0 mi NW 3.5 mph - N/A   Mostly Cloudy
9:53 AM 50.0 °F - 34.0 °F 54% 30.37 in 10.0 mi Calm Calm - N/A   Overcast
10:53 AM 54.0 °F - 35.1 °F 49% 30.38 in 10.0 mi WNW 5.8 mph - N/A   Mostly Cloudy
11:53 AM 55.9 °F - 33.1 °F 42% 30.38 in 10.0 mi NW 6.9 mph - N/A   Mostly Cloudy
12:53 PM 60.1 °F - 32.0 °F 35% 30.37 in 10.0 mi West 12.7 mph - N/A   Mostly Cloudy
1:53 PM 61.0 °F - 32.0 °F 34% 30.35 in 10.0 mi WSW 11.5 mph - N/A   Scattered Clouds
2:53 PM 61.0 °F - 32.0 °F 34% 30.34 in 10.0 mi WSW 10.4 mph - N/A   Clear
3:53 PM 60.1 °F - 32.0 °F 35% 30.36 in 10.0 mi WSW 12.7 mph - N/A   Clear
4:53 PM 55.9 °F - 33.1 °F 42% 30.38 in 10.0 mi WSW 9.2 mph - N/A   Clear
5:53 PM 46.9 °F - 32.0 °F 56% 30.41 in 10.0 mi SSW 9.2 mph - N/A   Clear
6:53 PM 45.0 °F 40.6 °F 32.0 °F 60% 30.43 in 10.0 mi South 8.1 mph - N/A   Clear
7:53 PM 48.9 °F - 33.1 °F 54% 30.41 in 10.0 mi SSW 10.4 mph - N/A   Clear
8:53 PM 46.9 °F - 32.0 °F 56% 30.41 in 10.0 mi South 6.9 mph - N/A   Clear
9:53 PM 48.0 °F - 33.1 °F 56% 30.40 in 10.0 mi SSW 9.2 mph - N/A   Clear
10:53 PM 45.0 °F 41.2 °F 33.1 °F 63% 30.40 in 10.0 mi South 6.9 mph - N/A   Clear